TimePST,TemperatureF,Dew PointF,Humidity,Sea Level PressureIn,VisibilityMPH,Wind Direction,Wind SpeedMPH,Gust SpeedMPH,PrecipitationIn,Events,Conditions,WindDirDegrees,DateUTC
12:52 AM,45.0,8.1,22,30.15,9.0,SW,3.5,-,N/A,,Clear,230,2014-01-07 08:52:00
1:52 AM,44.1,9.0,24,30.17,10.0,West,9.2,-,N/A,,Clear,260,2014-01-07 09:52:00
2:52 AM,46.9,7.0,20,30.15,10.0,Variable,5.8,-,N/A,,Clear,0,2014-01-07 10:52:00
3:52 AM,42.1,9.0,26,30.15,10.0,West,3.5,-,N/A,,Clear,280,2014-01-07 11:52:00
4:52 AM,44.1,8.1,23,30.14,10.0,WSW,5.8,-,N/A,,Clear,240,2014-01-07 12:52:00
5:52 AM,43.0,9.0,25,30.15,10.0,West,6.9,-,N/A,,Clear,280,2014-01-07 13:52:00
6:52 AM,37.9,9.0,30,30.15,10.0,Calm,Calm,-,N/A,,Clear,0,2014-01-07 14:52:00
7:52 AM,45.0,12.0,26,30.17,10.0,Calm,Calm,-,N/A,,Clear,0,2014-01-07 15:52:00
8:52 AM,44.1,16.0,32,30.18,10.0,East,3.5,-,N/A,,Clear,100,2014-01-07 16:52:00
9:52 AM,50.0,14.0,24,30.17,10.0,Calm,Calm,-,N/A,,Clear,0,2014-01-07 17:52:00
10:52 AM,55.0,10.0,17,30.15,10.0,Calm,Calm,-,N/A,,Clear,0,2014-01-07 18:52:00
11:52 AM,60.1,8.1,13,30.11,10.0,Variable,3.5,-,N/A,,Clear,0,2014-01-07 19:52:00
12:52 PM,64.0,8.1,11,30.08,10.0,Calm,Calm,-,N/A,,Clear,0,2014-01-07 20:52:00
1:52 PM,64.0,9.0,12,30.05,10.0,East,4.6,-,N/A,,Clear,90,2014-01-07 21:52:00
2:52 PM,63.0,18.0,18,30.05,10.0,ENE,4.6,-,N/A,,Clear,70,2014-01-07 22:52:00
3:52 PM,62.1,17.1,18,30.05,10.0,East,3.5,-,N/A,,Clear,90,2014-01-07 23:52:00
4:52 PM,60.1,19.0,20,30.05,10.0,Calm,Calm,-,N/A,,Clear,0,2014-01-08 00:52:00
5:52 PM,57.9,19.9,23,30.06,10.0,Calm,Calm,-,N/A,,Clear,0,2014-01-08 01:52:00
6:52 PM,57.9,19.9,23,30.05,10.0,Calm,Calm,-,N/A,,Clear,0,2014-01-08 02:52:00
7:52 PM,55.0,19.9,25,30.06,10.0,SSW,4.6,-,N/A,,Clear,200,2014-01-08 03:52:00
8:52 PM,52.0,21.9,31,30.06,10.0,WSW,5.8,-,N/A,,Clear,240,2014-01-08 04:52:00
9:52 PM,50.0,19.9,31,30.06,10.0,ENE,5.8,-,N/A,,Clear,70,2014-01-08 05:52:00
10:52 PM,46.0,21.9,39,30.06,10.0,NW,4.6,-,N/A,,Clear,310,2014-01-08 06:52:00
11:52 PM,46.0,17.1,31,30.05,10.0,NW,4.6,-,N/A,,Clear,320,2014-01-08 07:52:00